Weather History for Asheville, NC

Change the Weather History Date:

Tuesday, July 17, 2007

  Actual Average Record
Temperature  
Mean Temperature 74 °F 74 °F  
Max Temperature 83 °F 84 °F 95 °F (1980)
Min Temperature 65 °F 64 °F 54 °F (1939)
Degree Days  
Heating Degree Days 0 0  
Month to date heating degree days 0 0  
Since 1 June heating degree days 14  
Since 1 July heating degree days 0 0  
Cooling Degree Days 9 9  
Month to date cooling degree days 118 149  
Year to date cooling degree days 353 384  
Since 1 June cooling degree days 326  
Growing Degree Days 23 (Base 50)    
Moisture  
Dew Point 65 °F    
Average Humidity 74    
Maximum Humidity 93    
Minimum Humidity 55    
Precipitation  
Precipitation 0.02 in 0.14 in 1.43 in (1984)
Month to date precipitation 2.32 2.38  
Year to date precipitation 17.05 25.28  
Snow  
Snow 0.00 in 0.00 in 0.00 in ()
Month to date snowfall 0.0 0.0  
Since 1 June snowfall 0.0  
Since 1 July snowfall 0.0 0.0  
Snow Depth -    
Sea Level Pressure  
Sea Level Pressure 30.09 in    
Wind  
Wind Speed 3 mph (SSW)    
Max Wind Speed 18 mph    
Max Gust Speed 21 mph    
Visibility 8 miles    
Events Fog , Rain    
T = Trace of Precipitation, MM = Missing Value Source: NWS Daily Summary

Daily Weather History Graph

Daily Weather History Graph

Search for Another Location

Airport:

Trip Planner

Search our weather history database for the weather conditions in past years. The results will help you decide how hot, cold, wet, or windy it might be!

Date:

Astronomy

Jul. 17, 2007 Rise Set
Actual Time 6:27 AM EDT 8:44 PM EDT
Civil Twilight 5:58 AM EDT 9:13 PM EDT
Nautical Twilight 5:22 AM EDT 9:49 PM EDT
Astronomical Twilight 4:43 AM EDT 10:28 PM EDT
Moon 9:36 AM EDT (7/17) 10:53 PM EDT (7/17)
Length of Visible Light 15h 15m
Length of Day
14h 17m
Waxing Crescent, 11% of the Moon is Illuminated
Jul 17
Waxing Crescent
Jul 22
First Quarter
Jul 29
Full
Aug 5
Last Quarter
Aug 12
New

Hourly Weather History & Observations

Time (EDT) Temp. Heat Index Dew Point Humidity Pressure Visibility Wind Dir Wind Speed Gust Speed Precip Events Conditions
12:54 AM 66.9 °F - 64.0 °F 90% 30.09 in 8.0 mi Calm Calm - N/A   Clear
1:54 AM 68.0 °F - 64.0 °F 87% 30.08 in 10.0 mi NW 3.5 mph - N/A   Clear
2:54 AM 66.9 °F - 64.0 °F 90% 30.07 in 9.0 mi NNW 4.6 mph - N/A   Clear
3:54 AM 66.9 °F - 64.0 °F 90% 30.07 in 8.0 mi Calm Calm - N/A   Overcast
4:54 AM 66.0 °F - 63.0 °F 90% 30.07 in 7.0 mi Calm Calm - N/A   Clear
5:27 AM 66.2 °F - 62.6 °F 88% 30.16 in 7.0 mi Calm Calm - N/A   Scattered Clouds
5:36 AM 66.2 °F - 62.6 °F 88% 30.16 in 6.0 mi Calm Calm - N/A   Mostly Cloudy
5:54 AM 66.0 °F - 64.0 °F 93% 30.09 in 6.0 mi Calm Calm - N/A   Mostly Cloudy
6:17 AM 64.4 °F - 62.6 °F 94% 30.17 in 6.0 mi Calm Calm - N/A   Scattered Clouds
6:54 AM 66.0 °F - 63.0 °F 90% 30.10 in 6.0 mi Calm Calm - N/A Fog Patches of Fog
7:04 AM 64.4 °F - 62.6 °F 94% 30.17 in 4.0 mi Calm Calm - N/A Fog Patches of Fog
7:54 AM 66.9 °F - 64.0 °F 90% 30.11 in 5.0 mi Calm Calm - N/A   Partly Cloudy
8:54 AM 71.1 °F - 64.9 °F 81% 30.10 in 8.0 mi NNW 4.6 mph - N/A   Clear
10:54 AM 77.0 °F - 64.9 °F 66% 30.10 in 10.0 mi Variable 3.5 mph - N/A   Clear
11:54 AM 78.1 °F - 64.9 °F 64% 30.11 in 10.0 mi South 3.5 mph - N/A   Partly Cloudy
12:54 PM 79.0 °F - 64.9 °F 62% 30.09 in 10.0 mi SSW 4.6 mph - N/A   Partly Cloudy
1:54 PM 82.0 °F 83.8 °F 64.9 °F 56% 30.07 in 10.0 mi Variable 4.6 mph - N/A   Clear
2:54 PM 79.0 °F - 62.1 °F 56% 30.06 in 10.0 mi WSW 8.1 mph - 0.00 in Rain Light Rain
3:54 PM 78.1 °F - 64.9 °F 64% 30.04 in 10.0 mi SW 6.9 mph - 0.00 in Rain Light Rain
4:54 PM 78.1 °F - 64.0 °F 62% 30.04 in 10.0 mi SSW 8.1 mph - 0.00 in   Mostly Cloudy
5:54 PM 73.9 °F - 64.9 °F 73% 30.04 in 10.0 mi South 9.2 mph - 0.00 in   Scattered Clouds
6:25 PM 71.6 °F - 68.0 °F 88% 30.11 in 5.0 mi South 6.9 mph - 0.01 in Rain Rain
6:46 PM 71.6 °F - 66.2 °F 83% 30.11 in 8.0 mi South 6.9 mph - 0.02 in Rain Light Rain
6:54 PM 71.1 °F - 66.9 °F 87% 30.04 in 10.0 mi South 6.9 mph - 0.02 in Rain Light Rain
7:54 PM 71.1 °F - 66.0 °F 84% 30.04 in 10.0 mi SE 4.6 mph - 0.00 in   Partly Cloudy
8:54 PM 70.0 °F - 66.0 °F 87% 30.04 in 10.0 mi Calm Calm - N/A   Clear
9:54 PM 70.0 °F - 66.0 °F 87% 30.06 in 10.0 mi Calm Calm - N/A   Overcast
10:54 PM 69.1 °F - 66.0 °F 90% 30.06 in 8.0 mi Calm Calm - N/A   Partly Cloudy
11:54 PM 68.0 °F - 66.0 °F 93% 30.06 in 5.0 mi Calm Calm - N/A   Clear